Showing default

ACS 3, 59588

Orbit data source: Space-Track

ACS 3, 59588 is a payload satellite owned by ARC (US) in SSO that was launched on Tue, 23 Apr 2024 UTC via an ELECTRON launch vehicle from the Rocket Lab Launch Complex (RLLC). Payload-class satellites include a variety of spacecraft equipped with specific instruments for various scientific and technological missions. These include communications satellites like Starlink; space stations such as the ISS; scientific satellites like the Hubble; Earth observation satellites from companies like Planet Labs, Umbra, and HawkEye 360; GPS; miniature CubeSats for education and research; and military/defense satellites.

Loading next visibility...
Identifier
59588, 2024-077B
Orbit
SSO
Country
Flag of USUS
Related business
Manufacturer
ARC/NANAVU
Mission
Operational Civil Technology
Bus & Motor
CUBESAT 12U, Unknown motor
Mass
16.1 kg wet, 16.1 kg dry
Launch date (UTC)
2024-04-23 (2 years ago)
Launch vehicle
ELECTRON
Launch site
Rocket Lab Launch Complex (RLLC)
Object type
Payload
Rocket body
Debris
Shape & HBR
Box + 1 Sail, 6.3 m
Radar Cross Section
0.080 m², Large (>1 m²)

Expand to show TLE details & history
Last TLE update: 16 hours ago

TLE from 16 hours ago
0 ACS 3
1 59588U 24077B   25307.93768300  .00010308  00000-0  93818-2 0  9991
2 59588  97.3297 272.1378 0039559  30.9105 329.4372 13.83072193 76777
Epoch: 2025-11-03T22:30Z
TLE epoch observation values (Epoch: 2025-11-03T22:30:15.811Z)
Latitude
-0.00001°
Longitude
-108.85997°
Altitude
930.967 km
Speed
7.399 km/s
True Right ascension
18h 08m 33s
True Declination
0° 00' 00"
Sunlit
Object was in daylight at epoch
Visualization orbit readout
Latitude
Unknown
Longitude
Unknown
Altitude
Unknown
Speed
Unknown
Apparent Right ascension
Unknown
Apparent Declination
Unknown
Sunlit
N/A
Visualization observer readout
Local Sidereal Time
10:02:09
Azimuth
Unknown
Elevation
Unknown
Doppler factor
Unknown
Orbital elements
Apogee altitude
979.148 km
Perigee altitude
921.168 km
Semi-major axis
7,328.295 km
Eccentricity
0.00396
Inclination
97.3297°
RAAN
272.1378°
Arg. of periapsis
30.9105°
True anomaly
329.20571°
Mean anomaly
329.4372°
Eccentric anomaly
329.32156°
Mean motion
3.4597 °/min
Orbital period
104.06 mins
BSTAR
0.0093818
Loading maneuver chart data...
Computing Atmospheric mass density...
Loading historical data...
Loading historical data...
Loading historical data...
Loading historical data...
Loading historical data...
Loading historical data...
Loading historical data...
Other satellites on launch #77 in the year 2024 (2024-04-23 UTC)

Documentation

Showing up to 5 results
|